| time (UTC) | temp F | wind direction | speed knots | gust knots | rain 1hr in | rain 24hr in | rain mn in | humidity % | barometer mb |
| 20260901010043 | 58 | 277 | 0.0 | 0.9 | 0.00 | 0.09 | 0.08 | 85 | 1016.7 |
| 20260901004542 | 58 | 277 | 0.0 | 0.0 | 0.00 | 0.09 | 0.08 | 84 | 1016.5 |
| 20260901003046 | 59 | 277 | 0.0 | 0.9 | 0.00 | 0.09 | 0.08 | 83 | 1016.5 |
| 20260901001555 | 59 | 276 | 0.0 | 0.9 | 0.00 | 0.09 | 0.08 | 83 | 1016.4 |
| 20260901000039 | 59 | 277 | 0.0 | 0.9 | 0.00 | 0.09 | 0.08 | 82 | 1016.3 |
| 20260831234543 | 60 | 277 | 0.0 | 0.0 | 0.00 | 0.09 | 0.08 | 81 | 1016.0 |
| 20260831233043 | 61 | 277 | 0.0 | 0.0 | 0.00 | 0.09 | 0.08 | 80 | 1015.8 |
| 20260831231534 | 61 | 277 | 0.0 | 0.9 | 0.00 | 0.09 | 0.08 | 79 | 1015.8 |
| 20260831230032 | 62 | 277 | 0.0 | 0.9 | 0.00 | 0.09 | 0.08 | 77 | 1015.7 |
| 20260831224530 | 63 | 278 | 0.0 | 0.0 | 0.00 | 0.09 | 0.08 | 75 | 1015.7 |
| 20260831223032 | 64 | 278 | 0.0 | 0.9 | 0.00 | 0.09 | 0.08 | 72 | 1015.6 |
| 20260831221529 | 66 | 297 | 0.0 | 1.7 | 0.00 | 0.09 | 0.08 | 69 | 1015.5 |
| 20260831220029 | 67 | 245 | 0.0 | 3.5 | 0.00 | 0.09 | 0.08 | 66 | 1015.5 |
| 20260831214526 | 68 | 240 | 0.0 | 5.2 | 0.00 | 0.09 | 0.08 | 64 | 1015.3 |
| 20260831213033 | 68 | 332 | 0.9 | 4.3 | 0.00 | 0.09 | 0.08 | 64 | 1015.2 |
| 20260831211523 | 69 | 260 | 0.9 | 4.3 | 0.00 | 0.09 | 0.08 | 63 | 1015.0 |
| 20260831210022 | 71 | 27 | 0.9 | 7.0 | 0.00 | 0.09 | 0.08 | 60 | 1014.7 |
| 20260831204519 | 71 | 262 | 0.0 | 7.8 | 0.00 | 0.09 | 0.08 | 60 | 1014.5 |
| 20260831203020 | 72 | 66 | 0.0 | 4.3 | 0.00 | 0.09 | 0.08 | 60 | 1014.6 |
| 20260831201518 | 72 | 67 | 0.9 | 7.8 | 0.00 | 0.09 | 0.08 | 61 | 1014.4 |
| 20260831200023 | 73 | 46 | 0.9 | 8.7 | 0.00 | 0.09 | 0.08 | 58 | 1014.3 |
| 20260831194531 | 72 | 309 | 0.9 | 5.2 | 0.00 | 0.09 | 0.08 | 57 | 1014.2 |
| 20260831193017 | 75 | 57 | 1.7 | 8.7 | 0.00 | 0.09 | 0.08 | 53 | 1014.1 |
| 20260831191512 | 75 | 346 | 0.9 | 7.0 | 0.00 | 0.09 | 0.08 | 54 | 1013.9 |
| 20260831190013 | 75 | 259 | 0.9 | 5.2 | 0.00 | 0.09 | 0.08 | 51 | 1013.9 |
| 20260831184519 | 75 | 192 | 0.9 | 8.7 | 0.00 | 0.09 | 0.08 | 53 | 1013.7 |
| 20260831183009 | 75 | 6 | 1.7 | 7.0 | 0.00 | 0.09 | 0.08 | 52 | 1013.7 |
| 20260831181516 | 74 | 18 | 1.7 | 5.2 | 0.00 | 0.09 | 0.08 | 51 | 1013.6 |
| 20260831180009 | 74 | 335 | 1.7 | 7.8 | 0.00 | 0.09 | 0.08 | 51 | 1013.5 |
| 20260831174508 | 74 | 44 | 2.6 | 6.1 | 0.00 | 0.09 | 0.08 | 51 | 1013.6 |
| 20260831173006 | 75 | 253 | 0.9 | 7.0 | 0.00 | 0.09 | 0.08 | 51 | 1013.5 |
| 20260831171504 | 74 | 289 | 0.9 | 6.1 | 0.00 | 0.09 | 0.08 | 54 | 1013.6 |
| 20260831170002 | 74 | 53 | 1.7 | 6.1 | 0.00 | 0.09 | 0.08 | 50 | 1013.4 |
| 20260831164501 | 74 | 79 | 2.6 | 7.0 | 0.00 | 0.09 | 0.08 | 51 | 1013.6 |
| 20260831163100 | 74 | 95 | 0.9 | 4.3 | 0.00 | 0.09 | 0.08 | 52 | 1013.6 |
| 20260831161556 | 73 | 277 | 0.9 | 7.8 | 0.00 | 0.09 | 0.08 | 51 | 1013.5 |
| 20260831160055 | 73 | 276 | 1.7 | 5.2 | 0.00 | 0.09 | 0.08 | 55 | 1013.5 |
| 20260831154553 | 72 | 18 | 1.7 | 7.8 | 0.00 | 0.09 | 0.08 | 55 | 1013.4 |
| 20260831153055 | 73 | 296 | 0.9 | 7.0 | 0.00 | 0.09 | 0.08 | 59 | 1013.3 |
| 20260831151558 | 72 | 236 | 1.7 | 6.1 | 0.00 | 0.09 | 0.08 | 58 | 1013.5 |
| 20260831150049 | 71 | 326 | 2.6 | 7.8 | 0.00 | 0.09 | 0.08 | 56 | 1013.5 |
| 20260831144554 | 71 | 41 | 0.9 | 5.2 | 0.00 | 0.09 | 0.08 | 65 | 1013.6 |
| 20260831143044 | 70 | 72 | 0.9 | 7.0 | 0.00 | 0.09 | 0.08 | 63 | 1013.7 |
| 20260831141534 | 70 | 331 | 2.6 | 6.1 | 0.00 | 0.09 | 0.08 | 64 | 1013.6 |
| 20260831140033 | 69 | 289 | 2.6 | 6.1 | 0.00 | 0.09 | 0.08 | 67 | 1013.5 |
| 20260831134528 | 68 | 15 | 0.9 | 5.2 | 0.00 | 0.09 | 0.08 | 69 | 1013.3 |
| 20260831133025 | 67 | 226 | 0.9 | 6.1 | 0.00 | 0.09 | 0.08 | 73 | 1013.3 |
| 20260831131520 | 66 | 353 | 0.9 | 7.0 | 0.00 | 0.09 | 0.08 | 75 | 1013.2 |
| 20260831130021 | 66 | 347 | 1.7 | 8.7 | 0.00 | 0.09 | 0.08 | 74 | 1012.9 |
| 20260831124515 | 65 | 324 | 1.7 | 6.1 | 0.00 | 0.09 | 0.08 | 76 | 1012.8 |
| 20260831123011 | 64 | 82 | 0.9 | 7.0 | 0.00 | 0.09 | 0.08 | 81 | 1012.8 |
| 20260831121510 | 64 | 230 | 0.0 | 5.2 | 0.00 | 0.09 | 0.08 | 84 | 1012.8 |
| 20260831120016 | 64 | 278 | 1.7 | 6.1 | 0.00 | 0.09 | 0.08 | 86 | 1012.7 |
| 20260831114508 | 62 | 308 | 0.9 | 5.2 | 0.00 | 0.09 | 0.08 | 88 | 1012.7 |
| 20260831113007 | 62 | 241 | 0.9 | 7.0 | 0.00 | 0.09 | 0.08 | 90 | 1012.7 |
| 20260831111505 | 61 | 274 | 0.0 | 4.3 | 0.00 | 0.09 | 0.08 | 91 | 1012.6 |
| 20260831110003 | 60 | 262 | 0.9 | 4.3 | 0.00 | 0.09 | 0.08 | 92 | 1012.6 |
| 20260831104504 | 59 | 259 | 0.0 | 2.6 | 0.00 | 0.09 | 0.08 | 92 | 1012.2 |
| 20260831103104 | 58 | 257 | 0.0 | 0.9 | 0.00 | 0.09 | 0.08 | 93 | 1012.2 |
| 20260831101559 | 58 | 262 | 0.0 | 1.7 | 0.00 | 0.09 | 0.08 | 93 | 1012.0 |
| 20260831094557 | 59 | 270 | 0.9 | 3.5 | 0.01 | 0.09 | 0.08 | 93 | 1011.8 |
| 20260831093054 | 59 | 280 | 0.9 | 3.5 | 0.02 | 0.09 | 0.08 | 93 | 1011.7 |
| 20260831091552 | 59 | 247 | 0.0 | 3.5 | 0.02 | 0.09 | 0.08 | 93 | 1011.4 |
| 20260831090048 | 60 | 332 | 0.9 | 3.5 | 0.02 | 0.09 | 0.08 | 93 | 1011.2 |
| 20260831084552 | 60 | 273 | 0.0 | 2.6 | 0.00 | 0.07 | 0.06 | 93 | 1011.0 |
| 20260831083048 | 61 | 257 | 0.9 | 3.5 | 0.00 | 0.07 | 0.06 | 93 | 1011.0 |
| 20260831081600 | 61 | 258 | 0.9 | 4.3 | 0.01 | 0.07 | 0.06 | 93 | 1011.1 |
| 20260831080041 | 61 | 276 | 0.9 | 2.6 | 0.01 | 0.07 | 0.06 | 93 | 1010.8 |
| 20260831074544 | 61 | 290 | 0.0 | 4.3 | 0.02 | 0.07 | 0.06 | 93 | 1011.0 |
| 20260831073106 | 61 | 271 | 0.0 | 3.5 | 0.02 | 0.07 | 0.06 | 93 | 1011.1 |
| 20260831071538 | 61 | 307 | 0.0 | 2.6 | 0.01 | 0.06 | 0.06 | 93 | 1011.0 |
| 20260831070037 | 62 | 274 | 0.0 | 3.5 | 0.01 | 0.06 | 0.06 | 93 | 1010.9 |
| 20260831064540 | 62 | 280 | 0.9 | 3.5 | 0.00 | 0.06 | 0.05 | 93 | 1011.1 |
| 20260831063035 | 62 | 260 | 0.0 | 2.6 | 0.01 | 0.06 | 0.05 | 93 | 1010.7 |
| 20260831061538 | 62 | 252 | 0.0 | 2.6 | 0.01 | 0.06 | 0.05 | 93 | 1010.4 |
| 20260831060031 | 62 | 274 | 0.0 | 1.7 | 0.02 | 0.06 | 0.05 | 92 | 1010.6 |
| 20260831054534 | 63 | 263 | 0.0 | 2.6 | 0.02 | 0.06 | 0.05 | 92 | 1010.7 |
| 20260831053033 | 63 | 259 | 0.0 | 2.6 | 0.01 | 0.05 | 0.04 | 92 | 1010.6 |
| 20260831051528 | 63 | 258 | 0.9 | 3.5 | 0.01 | 0.05 | 0.04 | 92 | 1010.8 |
| 20260831050039 | 63 | 247 | 1.7 | 7.8 | 0.02 | 0.04 | 0.03 | 92 | 1010.9 |
| 20260831044525 | 64 | 162 | 0.9 | 7.0 | 0.03 | 0.04 | 0.03 | 92 | 1011.0 |
| 20260831043027 | 64 | 285 | 1.7 | 7.0 | 0.03 | 0.04 | 0.03 | 92 | 1011.0 |
| 20260831041527 | 64 | 305 | 1.7 | 7.0 | 0.03 | 0.04 | 0.03 | 92 | 1010.8 |
| 20260831040040 | 65 | 255 | 2.6 | 9.6 | 0.02 | 0.02 | 0.02 | 91 | 1011.0 |
| 20260831034529 | 65 | 143 | 0.9 | 8.7 | 0.00 | 0.01 | 0.00 | 91 | 1011.0 |
| 20260831033020 | 65 | 245 | 6.1 | 12.2 | 0.00 | 0.01 | 0.00 | 91 | 1010.8 |
| 20260831031515 | 65 | 259 | 3.5 | 11.3 | 0.00 | 0.01 | 0.00 | 91 | 1010.7 |
| 20260831030024 | 65 | 264 | 7.0 | 13.0 | 0.00 | 0.01 | 0.00 | 91 | 1011.0 |
| 20260831024511 | 65 | 264 | 4.3 | 8.7 | 0.00 | 0.01 | 0.01 | 92 | 1011.2 |
| 20260831023009 | 65 | 252 | 6.1 | 11.3 | 0.00 | 0.01 | 0.01 | 91 | 1011.4 |
| 20260831021507 | 65 | 236 | 6.1 | 11.3 | 0.00 | 0.01 | 0.01 | 91 | 1011.7 |
| 20260831020006 | 65 | 242 | 5.2 | 9.6 | 0.01 | 0.01 | 0.01 | 91 | 1012.0 |
| 20260831014505 | 65 | 284 | 7.0 | 11.3 | 0.01 | 0.01 | 0.01 | 91 | 1012.1 |
| 20260831013003 | 65 | 262 | 5.2 | 10.4 | 0.01 | 0.01 | 0.01 | 91 | 1012.4 |
| 20260831011502 | 65 | 251 | 3.5 | 9.6 | 0.01 | 0.01 | 0.01 | 91 | 1012.4 |